This demonstration page uses our WeatherBlox Daily Observations layout. Learn more.

Left ArrowRight Arrow

39.12711, -84.51439

Hourly Observations for September 4, 2022

Temp ( °F °C ) Dew Point ( °F °C ) Humidity (%) Winds ( mph kmh ) Pressure ( in mb ) Visibility ( mi km ) Precip ( " mm )
12:37 am 00:37 Mostly Cloudy with Mist and Fog 70 21.1 70 21.1 100 100 Calm 30.08 1018 2 3 0.01 0.13
12:47 am 00:47 Mostly Cloudy with Light Rain 70 21 70 21 100 100 Calm 30.08 1018 3 5 0.01 0.13
12:53 am 00:53 Cloudy with Light Rain 70 21.1 70 21.1 100 100 Calm 30.08 1019 3 5 0.01 0.13
1:39 am 01:39 Partly Cloudy with Light Rain 70 21.1 70 21.1 100 100 NNE 6 9 30.07 1018 5 8 0.02 0.51
1:53 am 01:53 Mostly Cloudy with Light Rain 70 21.1 70 21.1 100 100 NNE 6 9 30.06 1018 5 8 0.02 0.51
2:45 am 02:45 Partly Cloudy with Mist and Fog 70 21.1 70 21.1 100 100 ENE 6 9 30.03 1017 6 10 0.01 0.13
2:53 am 02:53 Mostly Cloudy with Mist and Fog 70 21.1 70 21.1 100 100 ENE 5 7 30.03 1017 4 6 0.01 0.13
3:53 am 03:53 Partly Cloudy with Mist and Fog 70 21.1 70 21.1 100 100 Calm 30.05 1018 3 5 0.00 0.00
4:34 am 04:34 Mostly Cloudy with Mist and Fog 70 21.1 70 21.1 100 100 N 3 6 30.05 1017 4 6 0.00 0.00
4:53 am 04:53 Cloudy with Mist and Fog 71 21.7 70 21.1 96 96 N 3 6 30.05 1018 6 10 0.00 0.00
5:53 am 05:53 Cloudy with Mist and Fog 71 21.7 70 21.1 96 96 Calm 30.05 1018 4 6 0.00 0.00
6:53 am 06:53 Cloudy with Mist and Fog 71 21.7 70 21.1 96 96 Calm 30.06 1018 4 6 0.00 0.00
7:23 am 07:23 Mostly Cloudy with Mist and Fog 71 21.7 70 21.1 96 96 N 5 7 30.06 1018 4 6 0.00 0.00
7:48 am 07:48 Partly Cloudy with Mist and Fog 70 21 70 21 100 100 Calm 30.07 1018 1 2 0.00 0.00
7:53 am 07:53 Partly Cloudy with Mist and Fog 70 21.1 70 21.1 100 100 Calm 30.07 1018 1 2 0.00 0.00
8:53 am 08:53 Cloudy with Mist and Fog 71 21.7 71 21.7 100 100 N 5 7 30.07 1018 3 5 0.00 0.00
9:53 am 09:53 Cloudy with Mist and Fog 73 22.8 71 21.7 94 94 Calm 30.07 1018 3 5 0.00 0.00
10:53 am 10:53 Cloudy 74 23.3 71 21.7 91 91 S 3 6 30.07 1018 10 16 0.00 0.00
11:53 am 11:53 Mostly Cloudy 77 25 72 22.2 84 84 S 3 6 30.07 1018 10 16 0.00 0.00
12:53 pm 12:53 Cloudy 79 26.1 71 21.7 77 77 Calm 30.05 1018 10 16 0.00 0.00
1:34 pm 13:34 Cloudy 79 26.1 70 21.1 74 74 Calm 30.03 1017 10 16 0.00 0.00
1:53 pm 13:53 Cloudy with Light Rain 79 26.1 70 21.1 74 74 Calm 30.04 1017 7 11 0.01 0.13
2:24 pm 14:24 Cloudy with Heavy Rain 75 23.9 72 22.2 90 90 WNW 7 11 30.02 1017 0 0 0.17 4.32
2:31 pm 14:31 Cloudy with Heavy Rain 75 23.9 72 22.2 90 90 N 5 7 30.02 1017 3 4 0.25 6.35
2:35 pm 14:35 Cloudy with Nearby Thunderstorms 75 23.9 73 22.8 94 94 N 7 11 30.02 1017 4 6 0.25 6.35
2:57 pm 14:57 Cloudy with Nearby Thunderstorms 77 25 73 22.8 88 88 NNE 6 9 30.01 1016 10 16 0.00 0.00
3:18 pm 15:18 Cloudy 78 25.6 74 23.3 87 87 NNE 7 11 30.00 1016 10 16 0.01 0.13
3:53 pm 15:53 Mostly Cloudy 80 26.7 72 22.2 76 76 NNE 3 6 29.99 1016 10 16 0.01 0.13
4:45 pm 16:45 Mostly Cloudy with Nearby Thunderstorms 81 27.2 73 22.8 77 77 Calm 29.97 1015 10 16 0.00 0.00
4:53 pm 16:53 Mostly Cloudy with Nearby Thunderstorms 81 27.2 72 22.2 74 74 Calm 29.98 1015 10 16 0.00 0.00
5:00 pm 17:00 Mostly Cloudy 81 27.2 72 22.2 74 74 Calm 29.97 1015 10 16 0.00 0.00
5:53 pm 17:53 Mostly Sunny 81 27.2 72 22.2 74 74 SE 5 7 29.97 1015 10 16 0.00 0.00
6:53 pm 18:53 Partly Cloudy 78 25.6 71 21.7 79 79 SSE 5 7 29.97 1015 10 16 0.00 0.00
7:53 pm 19:53 Sunny 77 25 71 21.7 82 82 Calm 29.97 1015 10 16 0.00 0.00
8:53 pm 20:53 Cloudy 74 23.3 72 22.2 94 94 Calm 29.98 1015 10 16 0.00 0.00
9:53 pm 21:53 Mostly Clear 74 23.3 71 21.7 91 91 Calm 30.00 1016 10 16 0.00 0.00
10:53 pm 22:53 Clear 72 22.2 71 21.7 97 97 Calm 30.00 1016 9 14 0.00 0.00
11:53 pm 23:53 Mostly Clear 72 22.2 71 21.7 97 97 Calm 29.99 1016 8 13 0.00 0.00

Powered by AerisWeather